When you browse on this site, cookies collect data to enhance your experience and personalize the content and advertising you see.
Visit our Privacy Policy to learn more. By continuing to use the site, you agree to this use of cookies and data.
  • In Switzerland
  • List of Countries
  • For 7 days
  • Water Temperature
  • Weather Map
  • Weather Widgets
  • user-avatar
    Login

    Hourly Weather Olympia

    Today, 12 December, Thursday

    Time Temperature Precipitation Wind Pressure Humidity
    00:00 +7°C° 0.3 mm 4 mps 752 mmHg 91%
    01:00 +7°C° 0.3 mm 4 mps 753 mmHg 92%
    02:00 +8°C° 0.2 mm 3 mps 753 mmHg 92%
    03:00 +8°C° 0.2 mm 3 mps 754 mmHg 92%
    04:00 +8°C° 0 mm 3 mps 755 mmHg 94%
    05:00 +8°C° 0.3 mm 3 mps 754 mmHg 93%
    06:00 +8°C° 0.3 mm 3 mps 754 mmHg 93%
    07:00 +7°C° 0.3 mm 3 mps 754 mmHg 92%
    08:00 +8°C° 1.2 mm 3 mps 754 mmHg 92%
    09:00 +8°C° 1.2 mm 3 mps 754 mmHg 91%
    10:00 +7°C° 1.2 mm 4 mps 753 mmHg 91%
    11:00 +7°C° 2.2 mm 4 mps 753 mmHg 91%
    12:00 +7°C° 2.2 mm 4 mps 753 mmHg 91%
    13:00 +7°C° 2.2 mm 4 mps 753 mmHg 91%
    14:00 +7°C° 0.5 mm 4 mps 753 mmHg 89%
    15:00 +7°C° 0.5 mm 4 mps 753 mmHg 87%
    16:00 +7°C° 0.5 mm 4 mps 754 mmHg 85%
    17:00 +8°C° 0.1 mm 3 mps 754 mmHg 87%
    18:00 +7°C° 0.1 mm 3 mps 755 mmHg 88%
    19:00 +7°C° 0.1 mm 3 mps 756 mmHg 90%
    20:00 +5°C° 0 mm 3 mps 756 mmHg 90%
    21:00 +5°C° 0 mm 3 mps 756 mmHg 91%
    22:00 +5°C° 0 mm 3 mps 757 mmHg 92%
    23:00 +5°C° 0 mm 3 mps 757 mmHg 93%

    Tomorrow, 13 December, Friday

    Time Temperature Precipitation Wind Pressure Humidity
    00:00 +5°C° 0 mm 3 mps 757 mmHg 93%
    01:00 +5°C° 0 mm 3 mps 758 mmHg 93%
    02:00 +4°C° 0 mm 3 mps 758 mmHg 93%
    03:00 +5°C° 0 mm 2 mps 758 mmHg 93%
    04:00 +5°C° 0 mm 2 mps 758 mmHg 94%
    05:00 +5°C° 0 mm 2 mps 758 mmHg 94%
    06:00 +5°C° 0 mm 2 mps 758 mmHg 94%
    07:00 +5°C° 0 mm 2 mps 758 mmHg 94%
    08:00 +5°C° 0 mm 2 mps 758 mmHg 93%
    09:00 +6°C° 0 mm 2 mps 758 mmHg 91%
    10:00 +5°C° 0 mm 3 mps 758 mmHg 89%
    11:00 +7°C° 0.1 mm 2 mps 758 mmHg 87%
    12:00 +8°C° 0.1 mm 2 mps 758 mmHg 84%
    13:00 +9°C° 0.1 mm 2 mps 758 mmHg 81%
    14:00 +8°C° 0.3 mm 2 mps 757 mmHg 84%
    15:00 +7°C° 0.3 mm 2 mps 757 mmHg 86%
    16:00 +7°C° 0.3 mm 2 mps 757 mmHg 88%
    17:00 +6°C° 0.1 mm 2 mps 757 mmHg 90%
    18:00 +5°C° 0.1 mm 2 mps 757 mmHg 92%
    19:00 +5°C° 0.1 mm 2 mps 758 mmHg 94%
    20:00 +4°C° 0 mm 2 mps 757 mmHg 94%
    21:00 +4°C° 0 mm 2 mps 757 mmHg 95%
    22:00 +4°C° 0 mm 2 mps 757 mmHg 95%
    23:00 +3°C° 0 mm 2 mps 757 mmHg 95%

    Day after tomorrow, 14 December, Saturday

    Time Temperature Precipitation Wind Pressure Humidity
    00:00 +3°C° 0 mm 2 mps 757 mmHg 95%
    01:00 +3°C° 0 mm 2 mps 757 mmHg 95%
    02:00 +3°C° 0 mm 2 mps 757 mmHg 95%
    03:00 +3°C° 0 mm 2 mps 757 mmHg 95%
    04:00 +3°C° 0 mm 2 mps 757 mmHg 96%
    05:00 +4°C° 0 mm 1 mps 757 mmHg 95%
    06:00 +4°C° 0 mm 1 mps 757 mmHg 95%
    07:00 +3°C° 0 mm 1 mps 757 mmHg 95%
    08:00 +4°C° 0 mm 1 mps 757 mmHg 93%
    09:00 +5°C° 0 mm 1 mps 757 mmHg 91%
    10:00 +6°C° 0 mm 1 mps 757 mmHg 88%
    11:00 +7°C° 0 mm 1 mps 757 mmHg 85%
    12:00 +8°C° 0 mm 1 mps 757 mmHg 82%
    13:00 +9°C° 0 mm 1 mps 757 mmHg 78%
    14:00 +8°C° 0.1 mm 1 mps 756 mmHg 83%
    15:00 +6°C° 0.1 mm 0 mps 756 mmHg 87%
    16:00 +5°C° 0.1 mm 0 mps 756 mmHg 91%
    17:00 +4°C° 0 mm 0 mps 756 mmHg 93%
    18:00 +3°C° 0 mm 0 mps 757 mmHg 94%
    19:00 +3°C° 0 mm 0 mps 757 mmHg 95%
    20:00 +2°C° 0 mm 0 mps 757 mmHg 95%
    21:00 +2°C° 0 mm 0 mps 757 mmHg 96%
    22:00 +2°C° 0 mm 0 mps 757 mmHg 96%
    23:00 +2°C° 0 mm 0 mps 758 mmHg 96%

    15 December, Sunday

    Time Temperature Precipitation Wind Pressure Humidity
    00:00 +2°C° 0 mm 0 mps 758 mmHg 96%
    01:00 +2°C° 0 mm 0 mps 758 mmHg 95%
    02:00 +3°C° 0 mm 1 mps 758 mmHg 95%
    03:00 +3°C° 0 mm 1 mps 758 mmHg 94%
    04:00 +4°C° 0 mm 1 mps 758 mmHg 94%
    05:00 +4°C° 0 mm 1 mps 759 mmHg 94%
    06:00 +4°C° 0 mm 1 mps 759 mmHg 94%
    07:00 +3°C° 0 mm 1 mps 759 mmHg 94%
    08:00 +4°C° 0 mm 1 mps 760 mmHg 92%
    09:00 +3°C° 0 mm 0 mps 760 mmHg 89%
    10:00 +4°C° 0 mm 0 mps 760 mmHg 87%
    11:00 +5°C° 0 mm 0 mps 761 mmHg 83%
    12:00 +6°C° 0 mm 0 mps 761 mmHg 79%
    13:00 +6°C° 0 mm 0 mps 761 mmHg 75%
    14:00 +6°C° 0.1 mm 0 mps 761 mmHg 79%
    15:00 +5°C° 0.1 mm 0 mps 761 mmHg 84%
    16:00 +4°C° 0.1 mm 0 mps 761 mmHg 88%
    17:00 +4°C° 0 mm 0 mps 762 mmHg 90%
    18:00 +4°C° 0 mm 1 mps 762 mmHg 91%
    19:00 +4°C° 0 mm 1 mps 762 mmHg 92%
    20:00 +3°C° 0 mm 1 mps 762 mmHg 93%
    21:00 +3°C° 0 mm 1 mps 763 mmHg 94%
    22:00 +3°C° 0 mm 1 mps 763 mmHg 95%
    23:00 +2°C° 0 mm 0 mps 763 mmHg 94%

    16 December, Monday

    Time Temperature Precipitation Wind Pressure Humidity
    00:00 +2°C° 0 mm 0 mps 764 mmHg 93%
    01:00 +2°C° 0 mm 0 mps 764 mmHg 92%
    02:00 +2°C° 0 mm 0 mps 764 mmHg 92%
    03:00 +2°C° 0 mm 0 mps 765 mmHg 92%
    04:00 +3°C° 0 mm 0 mps 765 mmHg 91%
    05:00 +2°C° 0 mm 0 mps 765 mmHg 91%
    06:00 +2°C° 0 mm 0 mps 765 mmHg 91%
    07:00 +2°C° 0 mm 0 mps 765 mmHg 91%
    08:00 +2°C° 0 mm 0 mps 765 mmHg 89%
    09:00 +3°C° 0 mm 0 mps 766 mmHg 86%
    10:00 +4°C° 0 mm 0 mps 766 mmHg 83%
    11:00 +5°C° 0 mm 0 mps 766 mmHg 79%
    12:00 +6°C° 0 mm 0 mps 766 mmHg 75%
    13:00 +6°C° 0 mm 0 mps 766 mmHg 72%
    14:00 +7°C° 0 mm 1 mps 766 mmHg 75%
    15:00 +6°C° 0 mm 1 mps 766 mmHg 79%
    16:00 +5°C° 0 mm 1 mps 765 mmHg 83%
    17:00 +5°C° 0 mm 1 mps 766 mmHg 86%
    18:00 +4°C° 0 mm 1 mps 766 mmHg 89%
    19:00 +3°C° 0 mm 1 mps 766 mmHg 92%
    20:00 +3°C° 0 mm 1 mps 766 mmHg 92%
    21:00 +2°C° 0 mm 1 mps 766 mmHg 92%
    22:00 +2°C° 0 mm 1 mps 766 mmHg 93%
    23:00 +2°C° 0 mm 1 mps 766 mmHg 93%

    17 December, Tuesday

    Time Temperature Precipitation Wind Pressure Humidity
    00:00 +1°C° 0 mm 1 mps 766 mmHg 93%
    01:00 +1°C° 0 mm 1 mps 766 mmHg 93%
    02:00 +1°C° 0 mm 1 mps 765 mmHg 92%
    03:00 +1°C° 0 mm 1 mps 765 mmHg 91%
    04:00 +1°C° 0 mm 1 mps 765 mmHg 90%
    05:00 +1°C° 0 mm 1 mps 764 mmHg 89%
    06:00 +1°C° 0 mm 1 mps 764 mmHg 87%
    07:00 +1°C° 0 mm 1 mps 763 mmHg 85%
    08:00 +1°C° 0 mm 1 mps 763 mmHg 81%
    09:00 +2°C° 0 mm 1 mps 763 mmHg 77%
    10:00 +2°C° 0 mm 0 mps 763 mmHg 73%
    11:00 +4°C° 0 mm 1 mps 762 mmHg 69%
    12:00 +5°C° 0 mm 1 mps 762 mmHg 66%
    13:00 +6°C° 0 mm 1 mps 762 mmHg 62%
    14:00 +5°C° 0 mm 1 mps 761 mmHg 66%
    15:00 +4°C° 0 mm 1 mps 761 mmHg 71%
    16:00 +2°C° 0 mm 0 mps 761 mmHg 75%
    17:00 +2°C° 0 mm 0 mps 760 mmHg 76%
    18:00 +2°C° 0 mm 0 mps 760 mmHg 77%
    19:00 +1°C° 0 mm 0 mps 760 mmHg 78%
    20:00 +1°C° 0 mm 0 mps 760 mmHg 79%
    21:00 +1°C° 0 mm 0 mps 760 mmHg 79%
    22:00 +1°C° 0 mm 0 mps 760 mmHg 79%
    23:00 +1°C° 0 mm 0 mps 759 mmHg 79%
    Show more